CZ-3A DEB, 38670

Orbit data source: Space-Track

CZ-3A DEB, 38670 is space debris in HEO originally from a launch on Fri, 02 Feb 2007 UTC launched from the Xichang Space Center, China (XSC). Debris objects in space refer to the collection of defunct objects orbiting the Earth. Examples of debris include non-operational satellites, rocket bodies, and fragments generated from explosions, collisions, or faulty payload assembly.

Loading next visibility...
Identifier
38670, 2007-003AJ
Orbit
HEO
Country
Flag of CNCN / PRC
Related business
Manufacturer
Unknown
Mission
Spacecraft
Bus & Motor
Unknown
Mass
Unknown
Launch date (UTC)
2007-02-02 (19 years ago)
Launch vehicle
Unknown
Launch site
Xichang Space Center, China (XSC)
Object type
Payload
Rocket body
Debris
Shape & HBR
Unknown shape, 1.1 m
Radar Cross Section
Medium (>0.1 m² and <1 m²)

Expand to show TLE details & history
Last TLE update: 2 months ago

TLE from 2 months ago
0 CZ-3A DEB
1 38670U 07003AJ  26118.83583451 -.00000191  00000-0  25722-2 0  9991
2 38670  26.9693  67.1699 7446978 195.6169 113.5166  1.81726422  1750
Epoch: 2026-04-28T20:03Z
TLE epoch observation values (Epoch: 2026-04-28T20:03:36.101Z)
Latitude
-0.00001°
Longitude
-90.5831°
Altitude
38,346.836 km
Speed
1.942 km/s
True Right ascension
04h 28m 29s
True Declination
0° 00' 00"
Sunlit
Object was in daylight at epoch
Visualization orbit readout
Latitude
Unknown
Longitude
Unknown
Altitude
Unknown
Speed
Unknown
Apparent Right ascension
Unknown
Apparent Declination
Unknown
Sunlit
N/A
Visualization observer readout
Local Sidereal Time
00:50:29
Azimuth
Unknown
Elevation
Unknown
Doppler factor
Unknown
Orbital elements
Apogee altitude
43,117.346 km
Perigee altitude
864.553 km
Semi-major axis
28,369.087 km
Eccentricity
0.7447
Inclination
26.9693°
RAAN
67.1699°
Arg. of periapsis
195.6169°
True anomaly
164.40171°
Mean anomaly
113.5166°
Eccentric anomaly
140.59956°
Mean motion
0.45423 °/min
Orbital period
792.55 mins
BSTAR
0.0025722
Loading maneuver chart data...
Computing Atmospheric mass density...
Loading historical data...
Loading historical data...
Loading historical data...
Loading historical data...
Loading historical data...
Loading historical data...
Loading historical data...

Documentation

Showing up to 5 results
|